Regional Weather Roundup
Issued by NWS San Diego, CA

Home | Current Version | Previous Version | Text Only | Print | Product List | Glossary On
Versions: 1 2 3 4 5 6 7 8 9 10 11 12 13 14 15 16 17 18 19 20 21 22 23 24 25 26 27 28 29 30 31 32 33 34 35 36 37 38 39 40 41 42 43 44 45 46 47 48 49 50
000
ASUS46 KSGX 102011
RWRSGX

SAN DIEGO HOURLY WEATHER ROUNDUP
NATIONAL WEATHER SERVICE SAN DIEGO CA
1200 PM PST WED FEB 10 2016

NOTE: "FAIR" INDICATES FEW OR NO CLOUDS BELOW 12,000 FEET WITH NO
SIGNIFICANT WEATHER AND/OR OBSTRUCTIONS TO VISIBILITY.

CAZ042-043-060-061-PZZ750-775-102100-

GREATER SAN DIEGO AREA

CITY           SKY/WX    TMP DP  RH WIND       PRES   REMARKS
LINDBERGH FLD  PTSUNNY   82  26  13 CALM      30.13F
POINT LOMA       N/A     87  26  11 W5          N/A
NATIONAL CITY    N/A     82  36  19 CALM      30.12F
CHULA VISTA      N/A     87  42  21 E5        30.05F
IMPERIAL BEACH PTSUNNY   77  40  26 SW9       30.13F
BROWN FIELD    MOSUNNY   84  34  16 VRB5      30.13F
MIRAMAR MCAS   MOSUNNY   87  24  10 CALM      30.13F
MONTGOMERY FLD MOSUNNY   85  26  11 CALM      30.13F

$$

NORTH SAN DIEGO COUNTY

CITY           SKY/WX    TMP DP  RH WIND       PRES   REMARKS
CAMP PENDLETON MOSUNNY   84  32  15 CALM      30.12F
OCEANSIDE AP   MOSUNNY   80  42  25 W10       30.12F
OCEANSIDE HBR    N/A     66  52  60 W5        30.15F
VISTA            N/A     82  34  18 CALM      30.12F
CARLSBAD       MOSUNNY   81  35  19 SW5       30.13F
DEL MAR          N/A     79  33  18 CALM      30.15F
FALLBROOK        N/A     82  30  14 CALM      30.12F
ESCONDIDO        N/A     84  37  18 SW2       30.13F
SAN MARCOS       N/A     81  32  17 CALM      30.11F
POWAY            N/A     85  37  18 CALM      30.14F

$$

EAST SAN DIEGO COUNTY

CITY           SKY/WX    TMP DP  RH WIND       PRES   REMARKS
RAMONA         MOSUNNY   84  25  11 CALM      30.16F
SANTEE LAKES     N/A     85  37  18 CALM      30.11F
LA MESA          N/A     83  29  14 CALM      30.06F
JAMUL            N/A     81  38  21 N1        30.13F
DESCANSO N       N/A     79  20  11 CALM      30.05F
MT. LAGUNA OBS   N/A     62   9  12 E3        29.88F
CAMPO            N/A     76  22  13 E18       30.19F

$$

ORANGE COUNTY AND THE LOS ANGELES BASIN

CITY           SKY/WX    TMP DP  RH WIND       PRES   REMARKS
JOHN WAYNE AP  MOSUNNY   78  40  25 S6        30.13F
LAGUNA BEACH     N/A     75  46  35 CALM      30.09F
HUNTINGTON BCH   N/A     74  50  42 SW3       30.15F
FULLERTON      SUNNY     84  32  15 CALM      30.12F
LONG BEACH     SUNNY     82  36  19 CALM      30.13F
L.A. AP        MOSUNNY   83  25  12 CALM      30.13F
L.A. DOWNTOWN  SUNNY     86  32  14 CALM      30.12F

$$

THE INLAND EMPIRE

CITY           SKY/WX    TMP DP  RH WIND       PRES   REMARKS
CORONA         SUNNY     85  28  12 E7        30.14F
CHINO          PTSUNNY   83  29  14 CALM      30.16F
ONTARIO        PTSUNNY   82  26  13 CALM      30.16F
SAN BERNARDINO PTSUNNY   82  21  10 CALM      30.19F
RIVERSIDE AP   MOSUNNY   85  21   9 SE6       30.15F
MORENO VALLEY    N/A     85  31  14 SE5       28.29F
MARCH ARB      SUNNY     81  24  12 S1        30.18F
HORSETHIEF CYN   N/A     80  21  11 NE5       30.19F
PERRIS           N/A     82  31  16 S3        30.21F
HEMET EAST       N/A     76  24  14 CALM      30.05F
FRENCH VALLEY  FAIR      79  27  14 N5        30.18F
TEMECULA         N/A     76  40  27 S2        30.13F

$$

SAN BERNARDINO AND RIVERSIDE COUNTY MOUNTAINS

CITY           SKY/WX    TMP DP  RH WIND       PRES   REMARKS
BIG BEAR AP    SUNNY     61  14  16 E5        30.43F
ANGELUS OAKS     N/A     65  27  23 CALM      30.18F
PINE COVE        N/A     65  19  17 W2        30.17F

$$

SOUTHERN DESERT INCLUDING THE COACHELLA VALLEY

CITY           SKY/WX    TMP DP  RH WIND       PRES   REMARKS
PALM SPRINGS   PTSUNNY   83  25  12 E5        30.19F
THOUSAND PALMS   N/A     84  26  12 E3        30.16F
PALM DESERT      N/A     84  28  13 CALM      32.15S
THERMAL        MOSUNNY   82  20  10 S3        30.15F
BLYTHE         MOSUNNY   77  28  16 N6        30.20F
IMPERIAL AP    SUNNY     81  26  13 W3        30.16F
EL CENTRO NAS  MOSUNNY   82  22  11 CALM      30.18F
YUMA AZ        PTSUNNY   83  25  12 N10       30.16F
MEXICALI       PTSUNNY   79  21  11 NW7       30.18F

$$

UPPER DESERT

CITY           SKY/WX    TMP DP  RH WIND       PRES   REMARKS
VICTORVILLE AP SUNNY     68  19  15 CALM      30.30F
HESPERIA         N/A     66  29  25 CALM      30.41F
APPLE VALLEY     N/A     72  21  15 CALM      30.26F
PALMDALE       SUNNY     66  26  22 CALM      30.31F
LANCASTER      SUNNY     67  28  23 NE3       30.30F
EDWARDS AFB    MOSUNNY   63  25  23 CALM      30.28F
DAGGETT        MOSUNNY   70  23  17 NE5       30.29F
29 PALMS N     PTSUNNY   71  21  15 W3        30.33F
NEEDLES        MOSUNNY   75  29  18 NE7       30.25F

$$

REGIONAL REPORTS

CITY           SKY/WX    TMP DP  RH WIND       PRES   REMARKS
SANTA BARBARA  SUNNY     74  47  38 VRB3      30.13F
SANDBERG       SUNNY    N/A N/A N/A E16       30.35F
LAS VEGAS NV   MOSUNNY   65  27  23 CALM      30.28F
PHOENIX AZ     MOSUNNY   81  25  12 SE5       30.18F
TIJUANA        MOSUNNY   86  27  11 E3        30.15F
ENSENADA NW      N/A     72  32  23 W10       30.09F

$$

OFFSHORE ISLANDS

CITY           SKY/WX    TMP DP  RH WIND       PRES   REMARKS
CATALINA ARPT  SUNNY     80  32  17 VRB5      30.20F
SAN CLEMENTE I MOSUNNY   70  50  49 S7        30.16F
SAN NICOLAS IS MOSUNNY   77  29  17 N5        30.14F

$$

MARINE AND OFFSHORE BUOY REPORTS

STATION/POSITION SKY/WX   TEMP    WIND        PRES    SWELL
                          AIR SEA DIR/SP/G            HT/PER/DIR
                          (F)     (DEG/KT/KT) (MB)    (FT/S/D)
TANNER BANKS               61 59  320/  6/  6 1020.6F   5/300/14
S CLEMENTE BASIN           63 63  340/  2/  4 1020.2F   3/280/14
SAN NICOLAS IS.               59                N/A     3/290/13
SO. S. ROSA ISLA           59 58              1020.0F
W. S. BARBARA CH           58 58  320/ 14/ 17 1020.4F   5/290/13
M. S. BARBARA CH           61 58   CALM  /  2 1021.5S
S. MONICA BASIN            66 62   80/  2/  4 1020.5F   2/290/14
S PEDRO CHANNEL               61                N/A     2/270/13
DANA POINT                    60                N/A     3/280/13
OCEANSIDE OFFSHR              62                N/A     2/260/13
TORREY PINES OTR              61                N/A     3/280/14
LA JOLLA 1                 68 59   40/  2/  2 1020.8F
SAN DIEGO BAY                 60              1021.1F
POINT LOMA SOUTH              62                N/A     3/290/14

$$




USA.gov is the U.S. government's official web portal to all federal, state and local government web resources and services.